Flag for U.S.A. Weather past 2 weeks in Cincinnati, Ohio, U.S.A.

Now
54 °F

Overcast.


Feels Like: 52 °F
Forecast: 49 / 72 °F
Wind: 7 mph from Northeast

Location: Cincinnati Municipal Airport Lunken Field

Current Time: Jun 2, 2015 at 5:52:35 AM

Latest Report: Jun 2, 2015 at 4:53 AM


Visibility: 10 mi

Pressure: 30.12 "Hg

Humidity: 83%

Dew point: 49 °F

Location of CincinnatiLocation

Historic Weather in Cincinnati — Graph

°F

Cincinnati temperature yesterday

Maximum temperature yesterday: 58 °F (at 5:53 PM)
Minimum temperature yesterday: 53 °F (at 5:53 AM)
Average temperature yesterday: 55 °F

Past Weeks' High & Low Weather Summary

 TemperatureHumidityPressure
High84 °F (May 24, 4:53 PM)100% (May 18, 11:53 PM)30.40 "Hg (May 18, 11:53 PM)
Low40 °F (May 22, 2:53 AM)31% (May 23, 3:53 PM)29.91 "Hg (May 31, 4:53 AM)
Average65 °F75%30.12 "Hg
* Reported May 18 3:53 AM — Jun 2 3:53 AM, Cincinnati, Weather by CustomWeather, © 2015

Note: Actual official high and low records may vary slightly from our data, if they occured in-between our weather recording intervals... More about our weather records

Advertising

Cincinnati weather history for previous 24 hours

 ConditionsComfort  
Time TempWeatherWind HumidityBarometerVisibility
3:53 AM
Tue, Jun 2
54 °FOvercast.8 mph83%30.12 "Hg10 mi
2:53 AM54 °FOvercast.7 mph83%30.13 "Hg10 mi
1:53 AM55 °FOvercast.5 mph83%30.14 "Hg10 mi
12:53 AM55 °FOvercast.9 mph80%30.16 "Hg10 mi
10:53 PM
Mon, Jun 1
56 °FOvercast.8 mph84%30.16 "Hg10 mi
9:53 PM57 °FOvercast.9 mph83%30.15 "Hg10 mi
8:53 PM57 °FOvercast.10 mph83%30.14 "Hg10 mi
7:53 PM57 °FOvercast.8 mph83%30.14 "Hg10 mi
6:53 PM58 °FOvercast.9 mph84%30.12 "Hg10 mi
5:53 PM58 °FOvercast.6 mph81%30.12 "Hg10 mi
4:53 PM57 °FOvercast.8 mph83%30.13 "Hg10 mi
4:01 PM56 °FOvercast.8 mph87%30.14 "Hg10 mi
2:53 PM55 °FLight rain. Mostly cloudy.10 mph90%30.14 "Hg7 mi
1:53 PM54 °FLight rain. Mostly cloudy.9 mph90%30.15 "Hg8 mi
12:53 PM54 °FLight rain. Mostly cloudy.8 mph90%30.16 "Hg10 mi
11:53 AM53 °FLight rain. Overcast.7 mph89%30.16 "Hg8 mi
10:53 AM54 °FLight rain. Mostly cloudy.9 mph83%30.15 "Hg10 mi
9:53 AM53 °FMostly cloudy.8 mph89%30.16 "Hg10 mi
8:53 AM53 °FLight rain. Overcast.8 mph86%30.16 "Hg10 mi
7:53 AM53 °FOvercast.10 mph83%30.15 "Hg10 mi
6:53 AM53 °FOvercast.8 mph83%30.14 "Hg10 mi
5:53 AM53 °FOvercast.6 mph86%30.14 "Hg10 mi
Weather by CustomWeather, © 2015

See weather overviewHow to use our weather pages